This demonstration page uses our WeatherBlox Daily Observations layout. Learn more.

Left ArrowRight Arrow

34.74481, -87.66753

Hourly Observations for May 13, 2022

Temp ( °F °C ) Dew Point ( °F °C ) Humidity (%) Winds ( mph kmh ) Pressure ( in mb ) Visibility ( mi km ) Precip ( " mm )
12:53 am 00:53 Clear 65 18.3 62 16.7 90 90 Calm 29.94 1014 9 14 0.00 0.00
1:53 am 01:53 Clear 66 18.9 63 17.2 90 90 E 3 6 29.93 1014 10 16 0.00 0.00
2:53 am 02:53 Clear 68 20 62 16.7 81 81 ESE 6 9 29.94 1014 10 16 0.00 0.00
3:53 am 03:53 Clear 65 18.3 59 15 81 81 ESE 3 6 29.95 1014 10 16 0.00 0.00
4:53 am 04:53 Clear 63 17.2 58 14.4 84 84 E 5 7 29.96 1015 10 16 0.00 0.00
5:53 am 05:53 Sunny 62 16.7 58 14.4 86 86 E 3 6 29.98 1015 10 16 0.00 0.00
6:53 am 06:53 Sunny 66 18.9 60 15.6 81 81 E 5 7 30.01 1016 10 16 0.00 0.00
7:53 am 07:53 Sunny 71 21.7 61 16.1 71 71 SSE 9 15 30.01 1016 10 16 0.00 0.00
8:53 am 08:53 Sunny 75 23.9 61 16.1 62 62 SSE 12 19 30.02 1017 10 16 0.00 0.00
9:53 am 09:53 Sunny 78 25.6 61 16.1 56 56 SSE 9 15 30.00 1016 10 16 0.00 0.00
10:53 am 10:53 Sunny 80 26.7 62 16.7 54 54 S 7 11 30.01 1016 10 16 0.00 0.00
11:53 am 11:53 Sunny 82 27.8 63 17.2 53 53 undefined N/A 29.99 1016 10 16 0.00 0.00
12:53 pm 12:53 Sunny 84 28.9 63 17.2 49 49 SSE 7 11 29.99 1016 10 16 0.00 0.00
1:53 pm 13:53 Mostly Sunny 86 30 63 17.2 46 46 ESE 7 11 29.95 1014 10 16 0.00 0.00
2:53 pm 14:53 Partly Cloudy 86 30 61 16.1 43 43 E 3 6 29.91 1013 10 16 0.00 0.00
3:53 pm 15:53 Sunny 85 29.4 61 16.1 45 45 E 8 13 29.91 1013 10 16 0.00 0.00
4:53 pm 16:53 Mostly Cloudy 85 29.4 63 17.2 48 48 E 7 11 29.92 1013 10 16 0.00 0.00
5:53 pm 17:53 Sunny 84 28.9 64 17.8 51 51 SE 6 9 29.92 1013 10 16 0.00 0.00
6:53 pm 18:53 Sunny 80 26.7 63 17.2 56 56 S 7 11 29.92 1013 10 16 0.00 0.00
7:53 pm 19:53 Mostly Cloudy 77 25 63 17.2 62 62 WNW 14 22 29.93 1014 10 16 0.00 0.00
8:53 pm 20:53 Mostly Clear 71 21.7 64 17.8 79 79 ESE 5 7 29.91 1013 10 16 0.00 0.00
9:53 pm 21:53 Clear 72 22.2 64 17.8 76 76 ESE 3 6 29.89 1012 10 16 0.00 0.00
10:53 pm 22:53 Clear 72 22.2 63 17.2 73 73 S 3 6 29.91 1013 10 16 0.00 0.00
11:53 pm 23:53 Clear 68 20 63 17.2 84 84 Calm 29.93 1013 10 16 0.00 0.00

Powered by AerisWeather